AKDT,Max TemperatureF,Mean TemperatureF,Min TemperatureF,Max Dew PointF,MeanDew PointF,Min DewpointF,Max Humidity, Mean Humidity, Min Humidity, Max Sea Level PressureIn, Mean Sea Level PressureIn, Min Sea Level PressureIn, Max VisibilityMiles, Mean VisibilityMiles, Min VisibilityMiles, Max Wind SpeedMPH, Mean Wind SpeedMPH, Max Gust SpeedMPH,PrecipitationIn, CloudCover, Events, WindDirDegrees
2012-7-1,54,51,48,45,43,41,83,75,64,29.88,29.84,29.78,10,10,10,13,5,17,0.00,5,,260
2012-7-2,54,48,42,46,42,39,96,77,63,29.89,29.86,29.83,10,10,10,15,4,21,0.00,4,,270
2012-7-3,51,48,46,44,42,37,86,76,61,29.83,29.80,29.77,10,10,6,8,3,,0.15,8,Rain,177
2012-7-4,53,48,44,44,42,38,96,79,64,29.82,29.79,29.75,10,10,8,8,2,,0.03,8,Rain,63
2012-7-5,54,50,46,45,41,39,86,74,59,29.81,29.76,29.73,10,10,10,9,4,,0.02,8,Rain,78
2012-7-6,55,48,42,46,42,39,93,77,59,29.86,29.84,29.82,10,10,10,8,2,,0.00,7,,137
2012-7-7,52,48,45,48,45,41,97,89,77,29.96,29.86,29.82,10,10,10,9,4,,0.01,6,Rain,233
2012-7-8,57,47,39,43,40,38,96,72,53,30.04,30.02,29.98,10,10,10,7,3,,0.00,4,,107
2012-7-9,55,50,44,46,42,39,87,76,57,30.04,29.95,29.86,10,10,10,14,4,,0.00,7,,262
2012-7-10,57,46,37,44,42,37,97,76,59,29.93,29.87,29.81,10,10,10,16,4,29,0.00,5,,133
2012-7-11,52,48,46,43,41,39,83,73,63,29.93,29.82,29.77,10,10,7,20,11,32,0.05,8,Rain,88
2012-7-12,55,52,48,46,41,36,90,65,54,29.90,29.78,29.74,10,10,10,24,11,33,0.00,8,,63
2012-7-13,55,50,46,48,46,44,93,84,69,30.20,30.06,29.91,10,10,10,15,4,,0.00,8,,243
2012-7-14,55,49,43,46,43,40,97,78,64,30.23,30.19,30.05,10,10,10,14,4,22,0.00,6,,134
2012-7-15,54,50,46,48,45,40,100,86,63,30.17,30.01,29.87,10,10,8,12,6,16,0.07,8,Rain,242
2012-7-16,55,48,42,46,44,42,100,87,69,30.29,30.25,30.19,10,10,10,14,4,,0.00,3,,246
2012-7-17,63,51,39,49,44,38,96,81,54,30.22,30.11,30.00,10,10,10,12,4,,0.00,1,,217
2012-7-18,57,48,39,49,45,39,100,88,62,30.02,29.99,29.97,10,9,0,20,4,25,0.00,1,Fog,308
2012-7-19,60,52,45,49,46,43,97,77,60,30.04,30.00,29.93,10,10,10,16,6,21,0.00,0,,268
2012-7-20,66,56,46,52,49,46,97,81,59,29.93,29.90,29.86,10,10,10,10,2,,0.00,2,,195
2012-7-21,57,54,50,52,51,49,100,93,80,29.88,29.86,29.84,10,8,2,7,2,,0.46,8,Rain,311
2012-7-22,55,51,48,52,49,46,100,94,80,30.07,29.94,29.84,10,10,9,13,4,,0.15,8,Rain,254
2012-7-23,54,51,48,49,47,45,97,85,74,30.19,30.13,30.07,10,10,8,5,2,,0.02,8,Rain,248
2012-7-24,55,52,48,50,48,47,100,94,77,30.27,30.23,30.19,10,10,8,8,2,,0.00,8,,244
2012-7-25,60,50,41,50,47,41,100,89,69,30.27,30.21,30.12,10,10,2,15,5,20,0.00,2,,270
2012-7-26,55,47,39,49,46,39,100,93,77,30.12,30.04,29.98,10,9,0,15,4,,0.00,2,Fog,227
2012-7-27,59,50,41,51,47,41,100,88,75,29.99,29.94,29.91,10,9,1,14,4,,0.00,0,,266
2012-7-28,64,54,44,50,48,45,100,76,58,30.00,29.97,29.92,10,10,2,8,4,20,0.00,1,Fog,211
2012-7-29,57,54,51,47,45,44,86,70,62,30.01,29.94,29.85,10,10,10,15,5,23,0.04,7,Rain,160
2012-7-30,55,52,48,48,46,43,93,78,67,29.89,29.81,29.77,10,10,4,12,6,18,0.21,8,Rain,109
2012-7-31,57,50,46,50,48,45,100,84,69,29.93,29.90,29.83,10,10,10,13,2,20,0.00,8,,180